Regional Weather Roundup
Issued by NWS

Home | Current Version | Previous Version | Graphics & Text | Print | Product List | Glossary Off
Versions: 1 2 3 4 5 6 7 8 9 10 11 12 13 14 15 16 17 18 19 20 21 22 23 24 25 26 27 28 29 30 31 32 33 34 35 36 37 38 39 40 41 42 43 44 45 46 47 48 49 50

000
ASUS43 KMKX 301400
RWRWI

WISCONSIN REGIONAL WEATHER ROUNDUP
NATIONAL WEATHER SERVICE MILWAUKEE/SULLIVAN WI
900 AM CDT SAT MAY 30 2015

NOTE: "FAIR" INDICATES FEW OR NO CLOUDS BELOW 12,000 FEET WITH NO
SIGNIFICANT WEATHER AND/OR OBSTRUCTIONS TO VISIBILITY.

WIZ001-002-006>008-014>016-023>028-301500-
NORTHWEST WISCONSIN

CITY           SKY/WX    TMP DP  RH WIND       PRES   REMARKS
SUPERIOR ARPT  MOSUNNY   47  36  64 NE12      30.26R
ASHLAND        CLOUDY    48  39  71 NE17      30.25R
HAYWARD        CLOUDY    48  39  71 N14       30.21R
SIREN          PTSUNNY   49  39  69 NE13      30.22R
CUMBERLAND     CLOUDY    46  39  76 N15G21    30.19R
RICE LAKE      CLOUDY    49  42  76 N15G21    30.20R
CHETEK         CLOUDY    50  44  80 N9        30.18R
LADYSMITH      CLOUDY    50  45  82 N14       30.17R
EAU CLAIRE     NOT AVBL
MENOMONIE      CLOUDY    51  44  78 N14G20    30.17R
NEW RICHMOND   MOSUNNY   49  42  74 N13       30.20R
OSCEOLA        SUNNY     49  40  73 N12G20    30.24R
$$

WIZ003>005-009-010-017-018-301500-
NORTH CENTRAL WISCONSIN

CITY           SKY/WX    TMP DP  RH WIND       PRES   REMARKS
MANITOWISH WTR CLOUDY    46  45  96 NE14      30.16R
ARBOR VITAE    CLOUDY    50  48  91 NE8G16    30.15R
WOODRUFF       CLOUDY    50  48  91 NE8G16    30.15R
RHINELANDER    LGT RAIN  49  46  90 NE9       30.14R FOG
EAGLE RIVER    CLOUDY    48  45  90 NE14      30.14R
LAND O LAKES   CLOUDY    46  45  95 NE12G17   30.16R FOG
PHILLIPS       CLOUDY    47  45  90 N12G20    30.15R
TOMAHAWK       CLOUDY    49  48  94 N6        30.14R FOG
MEDFORD        CLOUDY    51  47  86 N16       30.12R
MERRILL        CLOUDY    53  49  86 NE12G17   30.12R
$$

WIZ029-030-035-036-043>047-301500-
CENTRAL WISCONSIN

CITY           SKY/WX    TMP DP  RH WIND       PRES   REMARKS
WAUSAU         CLOUDY    54  48  80 VRB6G17   30.09R
MOSINEE        LGT RAIN  54  52  94 NE10      30.11R
MARSHFIELD     CLOUDY    54  49  83 N9        30.10R
STEVENS POINT  CLOUDY    52  49  89 NE8       30.10R
WAUPACA        LGT RAIN  55  53  95 NE10G17   30.09R
WAUTOMA        RAIN      52  52 100 NE17G30   30.07S VSB 1
WISC RAPIDS    CLOUDY    56  49  77 NE10      30.10R
CAMP DOUGLAS   CLOUDY    54  54 100 NE12      30.08R
$$

WIZ011>013-019>022-031-037>040-048>050-301500-
NORTHEAST WISCONSIN

CITY           SKY/WX    TMP DP  RH WIND       PRES   REMARKS
ANTIGO         CLOUDY    51  47  88 N13G20    30.11R
SHAWANO        LGT RAIN  54  50  86 NE14      30.10R
OCONTO         CLOUDY    51  48  90 NE12G17   30.10R
STURGEON BAY   CLOUDY    48  43  81 N16       30.12R
GREEN BAY      LGT RAIN  52  49  89 N15       30.09R
MANITOWOC      NOT AVBL
APPLETON       LGT RAIN  50  50 100 NE14G21   30.08R FOG
CLINTONVILLE   RAIN      52  50  93 NE5       30.09R
OSHKOSH        LGT RAIN  53  50  89 NE15      30.06F FOG
$$

WIZ032>034-041-042-053>061-301500-
SOUTHWEST WISCONSIN

CITY           SKY/WX    TMP DP  RH WIND       PRES   REMARKS
LA CROSSE      CLOUDY    57  51  80 N12       30.09R
SPARTA         DRIZZLE   54  52  95 N6        30.09R
VIROQUA        CLOUDY    54  54 100 N15G22    30.05S
BOSCOBEL       LGT RAIN  60  57  89 NE8       30.03R FOG
PRAIRIE DU CHI CLOUDY    59  54  84 N9        30.03R
PLATTEVILLE    CLOUDY    62  61  96 N16       29.98S
$$

WIZ056-057-062-063-064-067-068-301500-
SOUTH CENTRAL WISCONSIN

CITY           SKY/WX    TMP DP  RH WIND       PRES   REMARKS
REEDSBURG      CLOUDY    54  53  94 N12G21    30.04R
BARABOO/DELLS  LGT RAIN  54  52  94 NE15      30.04R
LONE ROCK      LGT RAIN  59  56  89 NE10G18   30.02R FOG
MINERAL POINT  CLOUDY    63  59  88 N14G20    29.99R
MADISON        LGT RAIN  57  55  93 NE17G32   30.00R FOG
MIDDLETON      CLOUDY    60  58  96 NE22G31   30.00R
WATERTOWN      RAIN     N/A N/A N/A NE15G24   30.01R
MONROE         CLOUDY    66  63  88 SW9       29.97R
JANESVILLE     MOSUNNY   70  66  88 SW6       29.96S
$$

WIZ051-052-058>065-066-070>072-301500-
SOUTHEAST WISCONSIN

CITY           SKY/WX    TMP DP  RH WIND       PRES   REMARKS
MILWAUKEE      LGT RAIN  51  48  89 NE16G22   30.03R
WAUKESHA       CLOUDY    52  48  87 NE14G21   30.03R
MILWAUKEE/TIMM DRIZZLE   52  46  82 NE15G28   30.04R
RACINE         LGT RAIN  50  48  93 N15G24    30.03S
BURLINGTON     LGT RAIN  54  53  97 NE12      30.00R
KENOSHA        LGT RAIN  53  51  93 N9        30.01R
FOND DU LAC    RAIN      53  51  93 NE17      30.07R FOG
SHEBOYGAN      LGT RAIN  49  46  90 NE22G30   30.06R FOG
WEST BEND      RAIN      50  46  87 N12G22    30.05R
JUNEAU         LGT RAIN  54  53  96 NE9       30.04R
$$

LSZ147-162-301500-
LAKE SUPERIOR

STATION/POSITION TIME  TEMP    WIND        PRES    WAVE
                       AIR SEA DIR/SP/G            HT/PER
                 (UTC) (F)     (DEG/KT/KT) (MB)    (FT/S)
W MID LAKE BUOY  1250   40 37  350/ 12/ 14   N/A     1/ 4
DEVILS ISLAND    1300   42      10/  7/  8   N/A
PORT WING        1300   45      10/  5/  6   N/A
SAXON HARBOR     1300   46      10/  7/  8   N/A
$$

LMZ867-665-643>646-301500-
LAKE MICHIGAN

STATION/POSITION TIME  TEMP    WIND        PRES    WAVE
                       AIR SEA DIR/SP/G            HT/PER
                 (UTC) (F)     (DEG/KT/KT) (MB)    (FT/S)
CHAMBERS ISLAND  1300   50     350/ 17/ 19   N/A
N MID LAKE BUOY  1250   40 37  330/  4/  6   N/A     2/ 4
NORTHPORT PIER   1300   49     350/ 21       N/A
SISTER BAY       1318   49      30/ 14/ 18   N/A
ALGOMA LAKESHORE 1308          360/ 13/ 16   N/A
KEWAUNEE LAKESHO 1300   49      30/ 10/ 15   N/A
SHEBOYGAN LAKESH 1300   48     360/ 23/ 24   N/A
PORT WASHINGTON  1300   52      20/ 12/ 23   N/A
ATWATER BUOY     1300   51      20/ 16/ 19   N/A
MILWAUKEE LAKESH 1300   51      20/ 16/ 20   N/A
S MID LAKE BUOY  1250   46 38  310/  4/  6   N/A     1
KENOSHA   LAKESH 1300   51      10/ 18/ 21   N/A
$$

TC  - TEMPERATURE IN CELSIUS
VSB - VISIBILITY IN STATUTE MILES
WCI - WIND CHILL INDEX
HX  - HEAT INDEX




USA.gov is the U.S. government's official web portal to all federal, state and local government web resources and services.